Regional Weather Roundup
Issued by NWS Green Bay, WI

Home | Current Version | Previous Version | Graphics & Text | Print | Product List | Glossary Off
Versions: 1 2 3 4 5 6 7 8 9 10 11 12 13 14 15 16 17 18 19 20 21 22 23 24 25 26 27 28 29 30 31 32 33 34 35 36 37 38 39 40 41 42 43 44 45 46 47 48 49 50

000
ASUS43 KGRB 271111
RWRGRB

NORTH-CENTRAL AND NORTHEAST WISCONSIN REGIONAL WEATHER ROUNDUP
NATIONAL WEATHER SERVICE GREEN BAY WI
600 AM CDT WED MAY 27 2015

WIZ005-009-010>012-018-019-271200-
NORTH CENTRAL WISCONSIN

CITY           SKY/WX    TMP DP  RH WIND       PRES   REMARKS
IRONWOOD       CLOUDY    52  50  93 W8        29.77R
MANITOWISH WTR LGT RAIN  52  52 100 NW6       29.80R
ARBOR VITAE    DRIZZLE   55  53  94 NW6       29.80R
EAGLE RIVER    LGT RAIN  53  52  99 NW6       29.78R
LAND O LAKES   LGT RAIN  53  52  97 NW8       29.79R
RHINELANDER    LGT RAIN  53  52  96 W5        29.80R
PHILLIPS       LGT RAIN  52  52 100 CALM      29.82R
ANTIGO         DRIZZLE   53  53  99 W9        29.79R
TOMAHAWK       DRIZZLE   52  51  95 W5        29.82R
MERRILL        DRIZZLE   54  54 100 W5        29.82R
$$

WIZ013-073-271200-
NORTHEAST WISCONSIN

CITY           SKY/WX    TMP DP  RH WIND       PRES   REMARKS
IRON MOUNTAIN  LGT RAIN  54  52  93 NW9       29.72R FOG
MARINETTE      CLOUDY    59  55  88 NW5       29.71R
OCONTO         CLOUDY    60  60 100 W8        29.73R
$$

WIZ017-030-035>037-045-271200-
CENTRAL WISCONSIN

CITY           SKY/WX    TMP DP  RH WIND       PRES   REMARKS
MEDFORD        DRIZZLE   53  52  97 W7        29.83R
WAUSAU         CLOUDY    55  53  93 NW8       29.79R
MOSINEE        DRIZZLE   54  54 100 W12       29.82R
MARSHFIELD     CLOUDY    56  53  90 W13       29.83R
WISC RAPIDS    CLOUDY    57  54  89 W8        29.84R
STEVENS POINT  CLOUDY    55  53  95 W9        29.83R
WAUPACA        CLOUDY    60  58  92 W10G17    29.81R
SHAWANO        LGT RAIN  59  56  91 W7        29.77R
CLINTONVILLE   CLOUDY    59  55  88 W10       29.78R
$$

WIZ038-039-048-051-271200-
FOX VALLEY

CITY           SKY/WX    TMP DP  RH WIND       PRES   REMARKS
NWS GREEN BAY  CLOUDY    62  57  83 W14       29.76R
APPLETON       CLOUDY    61  55  82 W13G21    29.78R
OSHKOSH        CLOUDY    62  56  80 W8        29.80R
FOND DU LAC    CLOUDY    61  56  83 SW8       29.82R
$$

WIZ022-050-052-271200-
EAST CENTRAL WISCONSIN

CITY           SKY/WX    TMP DP  RH WIND       PRES   REMARKS
STURGEON BAY   CLOUDY    61  55  82 W16       29.75R
MANITOWOC      CLOUDY    63  58  83 W13       29.78R
SHEBOYGAN      CLOUDY    62  56  80 SW13      29.81R
$$

LMZ563-521-522-541>543-271200-
LAKESHORE

STATION/POSITION TIME  TEMP    WIND        PRES    VSBY  WAVE
                       AIR SEA DIR/SP/G                  HT/PER
                 (UTC) (F)     (DEG/KT/KT) (MB)    (MI)  (FT/S)
SHEBOYGAN LKSHOR 1100   62     230/ 13/ 15 1009.9R
KEWAUNEE LKSHORE 1000   63     250/ 16/ 25 1005.9R
ALGOMA MARINA    1038          250/ 12/ 21   N/A
NORTHPORT PIER   1020   59     270/ 10/ 16 1004.4R
N MID LAKE BUOY  1050   43 37  210/ 17/ 19 1004.9R         5/ 6
SISTER BAY LKSHO 1003   59     260/ 16/ 18   N/A
CHAMBERS ISLAND  1000   56     270/  3/ 10 1004.4R
MENOMINEE LKSHOR 1000   60     250/ 10/ 14 1005.6R
$$


USA.gov is the U.S. government's official web portal to all federal, state and local government web resources and services.